QPF
0.00 0.00 0.00 0.00 0.00 0.00 0.00 0.00 0.00 0.00 0.00 0.00 0.00 0.00 0.00 0.00 0.00 0.00 0.00 0.00 0.00 0.00 0.00 0.00 0.00 0.01 0.01 0.00 0.00 0.01 0.01 0.02 0.06 0.01 0.00 0.01 0.00 0.00 0.00 0.00 0.00 0.00 0.00 0.00 0.00 0.00 0.00 0.00 0.00
0.00 0.00 0.00 0.00 0.00 0.00 0.00 0.00 0.00 0.00 0.00 0.00 0.00 0.00 0.00 0.00 0.00 0.00 0.00 0.00 0.00 0.00 0.00 0.00 0.00 0.02 0.03 0.00 0.00 0.00 0.00 0.01 0.02 0.01 0.01 0.02 0.00 0.00 0.00 0.00 0.00 0.00 0.00 0.00 0.00 0.00 0.00 0.00 0.00
0.00 0.00 0.00 0.00 0.00 0.00 0.00 0.00 0.00 0.00 0.00 0.00 0.00 0.00 0.00 0.00 0.00 0.00 0.00 0.00 0.00 0.00 0.00 0.00 0.01 0.03 0.05 0.01 0.00 0.00 0.00 0.00 0.00 0.01 0.00 0.01 0.00 0.00 0.00 0.00 0.00 0.00 0.00 0.00 0.00 0.00 0.00 0.00 0.00
0.00 0.00 0.00 0.00 0.00 0.00 0.00 0.00 0.00 0.00 0.00 0.00 0.00 0.00 0.00 0.00 0.00 0.00 0.00 0.00 0.00 0.00 0.00 0.00 0.00 0.01 0.03 0.02 0.03 0.03 0.03 0.01 0.01 0.02 0.01 0.00 0.01 0.00 0.00 0.00 0.00 0.00 0.00 0.00 0.00 0.00 0.00 0.00 0.00
0.00 0.00 0.00 0.00 0.00 0.00 0.00 0.00 0.00 0.00 0.00 0.00 0.00 0.00 0.00 0.00 0.00 0.00 0.00 0.00 0.00 0.00 0.00 0.00 0.00 0.01 0.03 0.03 0.03 0.04 0.05 0.04 0.02 0.01 0.01 0.02 0.01 0.00 0.00 0.00 0.00 0.00 0.00 0.00 0.00 0.00 0.00 0.00 0.00
0.00 0.00 0.00 0.00 0.00 0.00 0.00 0.00 0.00 0.00 0.00 0.00 0.00 0.00 0.00 0.00 0.00 0.00 0.00 0.00 0.00 0.00 0.00 0.00 0.00 0.00 0.00 0.01 0.02 0.04 0.05 0.04 0.03 0.02 0.02 0.03 0.03 0.01 0.00 0.00 0.00 0.00 0.00 0.00 0.00 0.00 0.00 0.00 0.00
0.00 0.00 0.00 0.00 0.00 0.00 0.00 0.00 0.00 0.00 0.00 0.00 0.00 0.00 0.00 0.00 0.00 0.00 0.00 0.00 0.00 0.00 0.00 0.00 0.00 0.00 0.00 0.00 0.00 0.00 0.01 0.01 0.01 0.01 0.01 0.01 0.00 0.01 0.01 0.00 0.00 0.00 0.00 0.00 0.00 0.00 0.00 0.00 0.00
0.00 0.00 0.00 0.00 0.00 0.00 0.00 0.00 0.00 0.00 0.00 0.00 0.00 0.00 0.00 0.00 0.00 0.00 0.00 0.00 0.00 0.00 0.00 0.00 0.00 0.00 0.00 0.01 0.00 0.00 0.00 0.00 0.00 0.00 0.00 0.00 0.00 0.00 0.00 0.00 0.00 0.00 0.00 0.00 0.00 0.00 0.00 0.00 0.00
0.00 0.00 0.00 0.00 0.00 0.00 0.00 0.00 0.00 0.00 0.00 0.00 0.00 0.00 0.00 0.00 0.00 0.00 0.00 0.00 0.00 0.00 0.00 0.00 0.00 0.00 0.00 0.00 0.00 0.00 0.00 0.00 0.00 0.00 0.00 0.00 0.01 0.01 0.00 0.00 0.00 0.00 0.00 0.00 0.00 0.00 0.00 0.00 0.00
0.00 0.00 0.00 0.00 0.00 0.00 0.00 0.00 0.00 0.00 0.00 0.00 0.00 0.00 0.00 0.00 0.00 0.00 0.00 0.00 0.00 0.00 0.00 0.00 0.00 0.00 0.00 0.00 0.00 0.02 0.02 0.01 0.00 0.01 0.03 0.07 0.11 0.04 0.01 0.00 0.00 0.00 0.00 0.00 0.00 0.00 0.00 0.00 0.00
0.00 0.00 0.00 0.00 0.00 0.00 0.00 0.00 0.00 0.00 0.00 0.00 0.00 0.00 0.00 0.00 0.00 0.00 0.00 0.00 0.00 0.00 0.00 0.00 0.00 0.00 0.00 0.00 0.00 0.01 0.02 0.01 0.01 0.03 0.04 0.07 0.05 0.02 0.01 0.00 0.00 0.00 0.00 0.00 0.00 0.00 0.00 0.00 0.00
0.00 0.00 0.00 0.00 0.00 0.00 0.00 0.00 0.00 0.00 0.00 0.00 0.00 0.00 0.00 0.00 0.00 0.00 0.00 0.00 0.00 0.00 0.00 0.00 0.00 0.00 0.00 0.00 0.00 0.01 0.01 0.02 0.02 0.01 0.02 0.03 0.04 0.04 0.02 0.01 0.00 0.00 0.00 0.00 0.00 0.00 0.00 0.00 0.00
0.00 0.00 0.00 0.00 0.00 0.00 0.00 0.00 0.00 0.00 0.00 0.00 0.00 0.00 0.00 0.00 0.00 0.00 0.00 0.00 0.00 0.00 0.00 0.00 0.00 0.00 0.00 0.00 0.00 0.01 0.01 0.00 0.00 0.00 0.00 0.00 0.00 0.00 0.01 0.02 0.01 0.00 0.00 0.00 0.00 0.00 0.00 0.00 0.00
0.00 0.00 0.00 0.00 0.00 0.00 0.00 0.00 0.00 0.00 0.00 0.00 0.00 0.00 0.00 0.00 0.00 0.00 0.00 0.00 0.00 0.00 0.00 0.00 0.00 0.00 0.00 0.00 0.01 0.00 0.00 0.00 0.00 0.00 0.00 0.00 0.00 0.00 0.00 0.00 0.00 0.00 0.01 0.01 0.01 0.00 0.00 0.00 0.00
0.00 0.00 0.00 0.00 0.00 0.00 0.00 0.00 0.00 0.00 0.00 0.00 0.00 0.00 0.00 0.00 0.00 0.00 0.00 0.00 0.00 0.00 0.00 0.00 0.00 0.00 0.00 0.00 0.00 0.00 0.00 0.00 0.00 0.00 0.00 0.00 0.00 0.00 0.00 0.00 0.00 0.00 0.00 0.00 0.00 0.00 0.01 0.00 0.00
0.00 0.00 0.00 0.00 0.00 0.00 0.00 0.00 0.00 0.00 0.00 0.00 0.00 0.00 0.00 0.00 0.00 0.00 0.00 0.00 0.00 0.00 0.00 0.00 0.00 0.00 0.00 0.00 0.00 0.00 0.00 0.00 0.00 0.00 0.00 0.00 0.00 0.00 0.00 0.00 0.00 0.00 0.01 0.00 0.00 0.00 0.01 0.00 0.00
0.00 0.00 0.00 0.00 0.00 0.00 0.00 0.00 0.00 0.00 0.00 0.00 0.00 0.00 0.00 0.00 0.00 0.00 0.00 0.00 0.00 0.00 0.00 0.00 0.00 0.00 0.00 0.00 0.00 0.00 0.00 0.00 0.00 0.00 0.00 0.00 0.00 0.00 0.00 0.00 0.00 0.00 0.00 0.00 0.00 0.00 0.00 0.00 0.00
0.00 0.00 0.00 0.00 0.00 0.00 0.00 0.00 0.00 0.00 0.00 0.00 0.00 0.00 0.00 0.00 0.00 0.00 0.00 0.00 0.00 0.00 0.00 0.00 0.00 0.00 0.00 0.00 0.00 0.00 0.00 0.00 0.00 0.00 0.00 0.00 0.00 0.00 0.00 0.00 0.00 0.00 0.00 0.00 0.00 0.00 0.00 0.00 0.00
0.00 0.00 0.00 0.00 0.00 0.00 0.00 0.00 0.00 0.00 0.00 0.00 0.00 0.00 0.00 0.00 0.00 0.00 0.00 0.00 0.00 0.00 0.00 0.00 0.00 0.00 0.00 0.00 0.00 0.00 0.00 0.00 0.00 0.00 0.00 0.00 0.00 0.00 0.00 0.00 0.00 0.00 0.00 0.00 0.00 0.00 0.00 0.00 0.00
0.00 0.00 0.00 0.00 0.00 0.00 0.00 0.00 0.00 0.00 0.00 0.00 0.00 0.00 0.00 0.00 0.00 0.00 0.00 0.00 0.00 0.00 0.00 0.00 0.00 0.00 0.00 0.00 0.00 0.00 0.00 0.00 0.00 0.00 0.00 0.00 0.00 0.00 0.00 0.00 0.00 0.00 0.00 0.00 0.00 0.00 0.00 0.00 0.00
0.00 0.00 0.00 0.00 0.00 0.00 0.00 0.00 0.00 0.00 0.00 0.00 0.00 0.00 0.00 0.00 0.00 0.00 0.00 0.00 0.00 0.00 0.00 0.00 0.00 0.00 0.00 0.00 0.00 0.00 0.00 0.00 0.00 0.00 0.00 0.00 0.00 0.00 0.00 0.00 0.00 0.00 0.00 0.00 0.00 0.00 0.00 0.00 0.00
0.00 0.00 0.00 0.00 0.00 0.00 0.00 0.00 0.00 0.00 0.00 0.00 0.00 0.00 0.00 0.00 0.00 0.00 0.00 0.00 0.00 0.00 0.00 0.00 0.00 0.00 0.00 0.00 0.00 0.00 0.00 0.00 0.00 0.00 0.00 0.00 0.00 0.00 0.00 0.00 0.00 0.00 0.00 0.00 0.00 0.00 0.00 0.00 0.00
0.00 0.00 0.00 0.00 0.00 0.00 0.00 0.00 0.00 0.00 0.00 0.00 0.00 0.00 0.00 0.00 0.00 0.00 0.00 0.00 0.00 0.00 0.00 0.00 0.00 0.00 0.00 0.00 0.00 0.00 0.00 0.00 0.00 0.00 0.00 0.00 0.00 0.00 0.00 0.00 0.00 0.00 0.00 0.00 0.00 0.00 0.00 0.00 0.00
0.00 0.00 0.00 0.00 0.00 0.00 0.00 0.00 0.00 0.00 0.00 0.00 0.00 0.00 0.00 0.00 0.00 0.00 0.00 0.00 0.00 0.00 0.00 0.00 0.00 0.00 0.00 0.00 0.00 0.00 0.00 0.00 0.00 0.00 0.00 0.00 0.00 0.00 0.00 0.00 0.00 0.00 0.00 0.00 0.00 0.00 0.00 0.00 0.00
0.00 0.00 0.00 0.00 0.00 0.00 0.00 0.00 0.00 0.00 0.00 0.00 0.00 0.00 0.00 0.00 0.00 0.00 0.00 0.00 0.00 0.00 0.00 0.00 0.00 0.00 0.00 0.00 0.00 0.00 0.00 0.00 0.00 0.00 0.00 0.00 0.00 0.00 0.00 0.00 0.00 0.00 0.00 0.00 0.00 0.00 0.00 0.00 0.00
0.00 0.00 0.00 0.00 0.00 0.00 0.00 0.00 0.00 0.00 0.00 0.00 0.00 0.00 0.00 0.00 0.00 0.00 0.00 0.00 0.00 0.00 0.00 0.00 0.00 0.00 0.00 0.00 0.00 0.00 0.00 0.00 0.00 0.00 0.00 0.00 0.00 0.00 0.00 0.00 0.00 0.00 0.00 0.00 0.00 0.00 0.00 0.00 0.00
0.00 0.00 0.00 0.00 0.00 0.00 0.00 0.00 0.00 0.00 0.00 0.00 0.00 0.00 0.00 0.00 0.00 0.00 0.00 0.00 0.00 0.00 0.00 0.00 0.00 0.00 0.00 0.00 0.00 0.00 0.00 0.00 0.00 0.00 0.00 0.00 0.00 0.00 0.00 0.00 0.00 0.00 0.00 0.00 0.00 0.00 0.00 0.00 0.00
0.00 0.00 0.00 0.00 0.00 0.00 0.00 0.00 0.00 0.00 0.00 0.00 0.00 0.00 0.00 0.00 0.00 0.00 0.00 0.00 0.00 0.00 0.00 0.00 0.00 0.00 0.00 0.00 0.00 0.00 0.00 0.00 0.00 0.00 0.00 0.00 0.00 0.00 0.00 0.00 0.00 0.00 0.00 0.00 0.00 0.00 0.00 0.00 0.00
0.00 0.00 0.00 0.00 0.00 0.00 0.00 0.00 0.00 0.00 0.00 0.00 0.00 0.00 0.00 0.00 0.00 0.00 0.00 0.00 0.00 0.00 0.00 0.00 0.00 0.00 0.00 0.00 0.00 0.00 0.00 0.00 0.00 0.00 0.00 0.00 0.00 0.00 0.00 0.00 0.00 0.00 0.00 0.00 0.00 0.00 0.00 0.00 0.00
0.00 0.00 0.00 0.00 0.00 0.00 0.00 0.00 0.00 0.00 0.00 0.00 0.00 0.00 0.00 0.00 0.00 0.00 0.00 0.00 0.00 0.00 0.00 0.00 0.00 0.00 0.00 0.00 0.00 0.00 0.00 0.00 0.00 0.00 0.00 0.00 0.00 0.00 0.00 0.00 0.00 0.00 0.00 0.00 0.00 0.00 0.00 0.00 0.00
MSLP
1011.93 1011.05 1010.89 1010.76 1011.27 1010.67 1011.41 1012.16 1011.85 1012.16 1012.36 1012.59 1012.58 1012.80 1014.01 1014.24 1014.80 1016.40 1016.46 1016.59 1016.40 1016.91 1017.85 1018.39 1018.70 1019.02 1019.33 1019.61 1019.80 1020.01 1020.10 1020.20 1020.35 1020.52 1020.74 1020.81 1021.05 1021.19 1021.39 1021.55 1021.59 1021.68 1021.77 1021.82 1021.85 1021.90 1021.85 1021.81 1021.83
1012.14 1011.23 1010.97 1010.71 1010.93 1010.90 1011.79 1011.97 1012.27 1012.45 1012.64 1012.69 1012.73 1013.17 1013.87 1015.07 1015.34 1016.14 1016.59 1016.79 1016.52 1016.98 1017.92 1018.53 1019.00 1019.24 1019.56 1019.82 1020.12 1020.27 1020.43 1020.47 1020.63 1020.79 1020.94 1021.09 1021.36 1021.54 1021.69 1021.86 1021.91 1022.06 1022.17 1022.20 1022.32 1022.35 1022.28 1022.24 1022.22
1012.27 1011.53 1011.48 1010.74 1010.61 1011.07 1011.57 1011.88 1012.33 1012.63 1012.64 1012.57 1012.91 1013.26 1014.36 1016.08 1016.05 1016.56 1016.86 1016.79 1016.72 1017.08 1017.59 1018.37 1019.05 1019.42 1019.68 1020.00 1020.32 1020.54 1020.62 1020.67 1020.80 1020.96 1021.18 1021.43 1021.61 1021.86 1022.15 1022.25 1022.36 1022.47 1022.57 1022.61 1022.78 1022.73 1022.58 1022.66 1022.57
1011.82 1011.47 1011.33 1011.16 1011.10 1011.44 1011.42 1011.83 1012.19 1012.54 1012.75 1012.81 1013.09 1014.63 1015.90 1016.74 1016.70 1016.96 1017.02 1016.70 1017.09 1017.35 1017.90 1018.62 1019.09 1019.49 1019.73 1019.97 1020.43 1020.74 1020.77 1020.89 1021.12 1021.23 1021.36 1021.61 1021.92 1022.22 1022.48 1022.57 1022.63 1022.76 1022.94 1023.11 1023.06 1023.06 1023.08 1023.07 1023.09
1011.77 1011.37 1011.27 1011.09 1011.47 1011.80 1011.78 1011.89 1012.11 1012.38 1012.67 1013.11 1013.42 1015.18 1016.51 1017.24 1017.09 1017.13 1017.20 1017.03 1017.36 1017.58 1018.23 1018.85 1019.21 1019.60 1019.79 1020.13 1020.46 1020.74 1020.95 1021.11 1021.21 1021.45 1021.69 1022.00 1022.24 1022.48 1022.62 1022.84 1023.02 1023.16 1023.32 1023.33 1023.35 1023.42 1023.38 1023.47 1023.46
1011.82 1011.46 1011.42 1011.36 1011.52 1011.92 1012.01 1012.14 1012.30 1012.36 1012.90 1013.44 1013.95 1015.17 1017.33 1017.66 1017.66 1017.63 1017.50 1017.58 1017.43 1017.96 1018.21 1018.80 1019.37 1019.74 1019.96 1020.16 1020.52 1020.81 1021.06 1021.21 1021.37 1021.59 1021.82 1022.07 1022.28 1022.53 1022.81 1023.02 1023.28 1023.41 1023.53 1023.64 1023.82 1023.93 1023.98 1023.89 1023.84
1012.22 1012.08 1011.78 1011.35 1011.62 1012.08 1012.20 1012.40 1012.45 1012.61 1013.12 1013.85 1014.12 1015.54 1017.55 1018.21 1018.08 1018.00 1018.08 1018.14 1018.27 1018.37 1018.53 1018.77 1019.15 1019.58 1020.03 1020.29 1020.50 1020.80 1021.05 1021.27 1021.47 1021.67 1021.87 1022.11 1022.36 1022.65 1022.90 1023.06 1023.30 1023.46 1023.69 1023.77 1024.11 1024.16 1024.29 1024.31 1024.30
1012.87 1012.52 1012.12 1011.73 1011.74 1012.11 1012.40 1012.67 1012.71 1013.04 1013.88 1014.18 1014.97 1016.32 1017.83 1018.33 1018.30 1018.32 1018.55 1018.97 1019.34 1019.32 1019.37 1019.41 1019.46 1019.69 1019.78 1020.11 1020.42 1020.71 1020.96 1021.24 1021.43 1021.60 1021.76 1022.06 1022.31 1022.67 1022.95 1023.14 1023.28 1023.42 1023.66 1023.89 1024.13 1024.22 1024.27 1024.44 1024.54
1012.93 1012.95 1012.42 1011.96 1011.95 1012.18 1012.59 1012.98 1013.40 1013.70 1014.15 1015.32 1016.42 1017.31 1018.16 1018.29 1018.27 1018.55 1018.99 1019.31 1019.67 1020.00 1020.20 1020.27 1020.23 1020.04 1020.20 1020.12 1020.31 1020.72 1020.89 1021.15 1021.43 1021.70 1021.93 1022.24 1022.46 1022.75 1023.02 1023.17 1023.32 1023.55 1023.87 1024.13 1024.38 1024.45 1024.50 1024.61 1024.60
1013.02 1013.05 1012.70 1012.31 1012.16 1012.48 1012.87 1013.15 1013.60 1014.10 1014.71 1016.06 1017.22 1017.97 1018.28 1018.40 1018.49 1018.90 1019.39 1019.86 1020.25 1020.55 1020.63 1020.70 1020.72 1020.67 1020.53 1020.41 1020.42 1020.55 1020.82 1021.10 1021.29 1021.46 1021.84 1022.07 1022.26 1022.66 1022.92 1023.32 1023.57 1023.79 1024.08 1024.40 1024.75 1024.89 1024.92 1024.91 1024.94
1013.18 1013.29 1013.16 1013.06 1013.11 1013.11 1013.28 1013.76 1013.82 1014.46 1015.29 1016.29 1016.83 1018.03 1018.56 1018.91 1019.25 1019.63 1020.11 1020.52 1020.85 1020.88 1020.97 1021.04 1020.95 1020.87 1020.79 1020.59 1020.55 1020.63 1020.78 1021.05 1021.18 1021.37 1021.57 1021.99 1022.42 1022.83 1023.32 1023.77 1023.87 1024.11 1024.24 1024.51 1024.74 1024.77 1024.82 1024.89 1024.91
1013.82 1013.46 1013.53 1013.71 1013.98 1014.01 1014.05 1014.12 1014.58 1015.09 1016.48 1016.94 1017.43 1018.04 1018.71 1019.29 1019.82 1020.24 1020.63 1020.99 1021.20 1021.30 1021.37 1021.39 1021.21 1020.99 1020.82 1020.85 1020.58 1020.62 1020.81 1021.35 1021.91 1022.20 1022.29 1022.50 1022.85 1023.23 1023.66 1024.03 1024.16 1024.30 1024.52 1024.72 1024.82 1025.01 1025.12 1025.17 1025.22
1013.91 1013.72 1013.95 1014.11 1014.44 1014.59 1014.73 1014.90 1015.12 1015.80 1016.73 1017.49 1018.04 1018.47 1019.17 1019.70 1020.11 1020.54 1020.81 1021.13 1021.42 1021.63 1021.72 1021.88 1021.69 1021.35 1020.83 1020.84 1020.64 1021.18 1021.55 1022.05 1022.49 1022.83 1022.99 1023.05 1023.35 1023.74 1024.03 1024.36 1024.67 1024.88 1024.96 1025.23 1025.39 1025.47 1025.63 1025.75 1025.75
1014.22 1014.23 1014.25 1014.34 1014.70 1014.89 1015.25 1015.31 1015.60 1015.94 1016.74 1017.72 1018.42 1018.95 1019.53 1019.96 1020.36 1020.68 1021.13 1021.44 1021.66 1021.81 1022.13 1022.16 1021.82 1021.27 1021.04 1021.49 1021.44 1021.97 1022.44 1022.87 1023.21 1023.58 1023.67 1023.57 1023.73 1024.06 1024.37 1024.83 1025.14 1025.41 1025.54 1025.76 1025.90 1025.98 1026.07 1026.13 1026.10
1014.67 1014.81 1014.54 1014.49 1014.83 1015.19 1015.50 1015.77 1015.48 1016.07 1016.81 1017.84 1018.55 1019.20 1019.82 1020.24 1020.53 1020.99 1021.35 1021.62 1021.88 1022.24 1022.37 1022.27 1022.10 1022.01 1022.05 1022.19 1022.33 1022.77 1023.22 1023.49 1023.82 1024.09 1024.09 1024.16 1024.19 1024.49 1024.86 1025.37 1025.71 1025.91 1026.02 1026.18 1026.40 1026.46 1026.53 1026.56 1026.45
1014.94 1014.89 1014.66 1013.79 1014.61 1015.62 1016.01 1015.39 1014.85 1015.96 1016.98 1017.87 1018.63 1019.26 1019.90 1020.51 1020.89 1021.26 1021.56 1021.80 1022.05 1022.50 1022.61 1022.63 1022.52 1022.68 1022.80 1022.81 1022.99 1023.26 1023.60 1023.82 1024.20 1024.49 1024.74 1024.87 1024.96 1025.17 1025.56 1025.93 1026.08 1026.21 1026.23 1026.32 1026.57 1026.76 1026.85 1026.95 1026.88
1014.93 1014.77 1014.56 1014.54 1014.66 1015.53 1016.28 1015.66 1015.70 1016.19 1016.97 1017.71 1018.23 1018.96 1019.64 1020.40 1020.94 1021.42 1021.73 1022.04 1022.46 1022.69 1022.86 1023.00 1023.14 1023.25 1023.40 1023.52 1023.61 1023.84 1024.11 1024.35 1024.77 1025.12 1025.40 1025.45 1025.40 1025.61 1025.95 1026.22 1026.45 1026.50 1026.57 1026.56 1026.66 1026.91 1026.91 1027.24 1027.17
1014.66 1014.86 1014.44 1014.38 1014.88 1015.27 1016.07 1015.77 1015.97 1016.15 1016.71 1017.19 1017.64 1018.37 1019.25 1020.03 1020.83 1021.45 1021.92 1022.22 1022.60 1022.84 1023.09 1023.27 1023.51 1023.65 1023.78 1023.94 1024.25 1024.54 1024.93 1025.32 1025.59 1026.01 1026.23 1026.27 1026.26 1026.35 1026.51 1026.74 1027.09 1027.25 1027.31 1027.47 1027.28 1027.24 1027.34 1027.61 1027.35
1014.44 1014.57 1014.59 1014.07 1014.55 1015.07 1015.27 1015.33 1015.21 1015.49 1016.12 1016.60 1017.03 1017.77 1018.88 1019.82 1020.77 1021.57 1022.02 1022.31 1022.62 1022.90 1023.18 1023.44 1023.56 1023.67 1023.79 1024.03 1024.33 1024.94 1025.78 1026.38 1026.75 1027.02 1027.09 1027.07 1027.09 1027.25 1027.47 1027.71 1027.92 1028.14 1028.25 1028.47 1028.21 1028.09 1028.19 1028.27 1027.82
1014.61 1014.76 1014.74 1014.54 1014.89 1015.33 1015.20 1014.88 1014.47 1014.70 1014.80 1015.11 1015.85 1016.89 1018.12 1019.61 1020.78 1021.55 1021.96 1022.09 1022.46 1022.83 1023.06 1023.34 1023.51 1023.68 1023.70 1023.85 1024.40 1025.15 1026.11 1027.04 1027.51 1027.85 1027.85 1027.81 1027.79 1027.88 1028.13 1028.54 1028.86 1029.10 1029.32 1029.38 1029.35 1029.34 1029.37 1029.33 1029.27
1014.67 1014.78 1014.94 1015.18 1015.39 1015.58 1015.73 1015.06 1014.43 1013.68 1013.46 1014.17 1014.90 1015.92 1017.20 1018.72 1020.23 1021.29 1021.72 1022.03 1022.26 1022.68 1022.85 1023.01 1023.21 1023.45 1023.90 1024.13 1024.68 1025.46 1026.36 1027.35 1028.16 1028.63 1028.64 1028.59 1028.49 1028.56 1028.80 1029.18 1029.42 1029.68 1029.81 1030.24 1030.44 1030.37 1030.33 1030.59 1030.18
1015.07 1014.83 1015.15 1015.54 1016.15 1016.17 1015.87 1014.70 1013.62 1012.96 1013.06 1013.58 1014.42 1015.54 1016.82 1018.25 1019.71 1020.91 1021.48 1022.00 1022.23 1022.69 1022.87 1023.11 1023.40 1023.67 1023.96 1024.18 1024.70 1025.31 1026.22 1027.35 1028.47 1028.88 1029.29 1029.26 1028.95 1028.95 1029.18 1029.56 1030.03 1030.38 1030.70 1031.05 1031.17 1031.13 1031.22 1031.26 1031.42
1015.08 1015.04 1015.47 1015.92 1016.58 1016.73 1016.44 1015.85 1012.70 1012.67 1012.58 1013.02 1013.75 1015.14 1016.57 1017.87 1019.19 1020.50 1021.25 1021.89 1022.36 1023.01 1023.31 1023.48 1023.81 1024.17 1024.31 1024.45 1024.86 1025.65 1026.81 1027.72 1028.58 1029.25 1029.66 1029.98 1030.08 1029.83 1029.84 1029.81 1030.17 1030.84 1031.21 1031.59 1031.86 1032.18 1032.16 1032.12 1032.20
1015.32 1015.98 1016.57 1017.01 1017.53 1017.06 1016.39 1015.88 1011.96 1011.93 1011.26 1011.57 1013.25 1014.89 1016.17 1017.65 1019.08 1020.30 1021.36 1021.95 1022.55 1023.17 1023.64 1023.94 1024.27 1024.52 1024.62 1024.84 1025.31 1026.05 1026.93 1027.80 1028.63 1029.30 1029.76 1030.09 1030.23 1030.38 1030.56 1030.73 1031.02 1031.14 1031.52 1031.88 1032.26 1032.44 1032.50 1032.55 1032.60
1015.69 1016.62 1017.45 1018.05 1018.25 1016.68 1015.59 1015.03 1011.82 1011.07 1010.72 1011.27 1012.53 1014.27 1015.73 1017.17 1018.73 1020.08 1021.15 1021.94 1022.57 1023.07 1023.63 1024.08 1024.47 1024.86 1024.97 1025.19 1025.63 1026.21 1026.86 1027.53 1028.28 1028.99 1029.53 1030.34 1030.89 1031.19 1031.34 1031.38 1031.61 1031.72 1031.96 1032.14 1032.42 1032.95 1033.29 1033.44 1033.38
1015.75 1016.16 1016.99 1017.56 1017.91 1017.03 1016.08 1014.01 1011.61 1011.27 1011.13 1011.22 1012.00 1013.85 1015.57 1017.02 1018.34 1019.65 1020.70 1021.40 1022.12 1022.76 1023.38 1023.90 1024.42 1024.74 1024.89 1025.20 1025.69 1026.27 1026.74 1027.28 1028.01 1028.73 1029.47 1030.21 1030.85 1031.33 1031.57 1031.87 1031.80 1031.95 1032.28 1032.43 1032.85 1033.16 1033.50 1033.88 1033.96
1015.66 1016.07 1015.72 1017.15 1018.05 1017.63 1015.16 1012.90 1011.64 1011.59 1012.02 1012.35 1012.96 1014.05 1015.23 1016.60 1017.83 1019.14 1020.26 1021.00 1021.80 1022.53 1023.20 1023.82 1024.44 1024.88 1025.19 1025.53 1025.94 1026.52 1027.05 1027.63 1028.31 1029.04 1029.71 1030.29 1030.64 1031.04 1031.58 1031.87 1032.10 1032.20 1032.58 1032.80 1033.03 1033.54 1033.85 1033.99 1034.21
1014.61 1014.91 1016.33 1017.30 1018.00 1016.83 1013.79 1012.37 1011.03 1011.59 1011.72 1012.62 1013.15 1013.59 1014.83 1016.29 1017.52 1018.67 1019.68 1020.59 1021.56 1022.40 1023.20 1023.91 1024.41 1024.82 1025.21 1025.62 1026.15 1026.71 1027.22 1027.79 1028.41 1029.06 1029.85 1030.37 1030.67 1031.12 1031.68 1032.15 1032.36 1032.67 1033.22 1033.13 1033.60 1033.71 1034.04 1034.08 1034.46
1014.64 1014.60 1015.09 1015.60 1016.20 1015.40 1013.63 1010.53 1008.78 1009.17 1010.13 1011.46 1012.35 1013.16 1013.97 1015.22 1016.52 1017.83 1018.93 1019.96 1020.93 1021.92 1022.81 1023.66 1024.36 1024.81 1025.32 1025.70 1026.12 1026.58 1027.15 1027.84 1028.27 1029.08 1029.91 1030.44 1030.87 1031.17 1031.69 1032.12 1032.35 1032.69 1033.25 1033.43 1033.95 1033.97 1033.90 1034.33 1034.30
1012.66 1013.12 1013.80 1014.47 1014.94 1014.23 1013.44 1008.00 1008.85 1009.03 1009.35 1010.49 1011.74 1012.76 1013.79 1014.89 1016.10 1017.30 1018.30 1019.38 1020.46 1021.39 1022.33 1023.12 1023.98 1024.70 1025.27 1025.68 1026.20 1026.84 1027.34 1027.82 1028.49 1029.29 1029.86 1030.27 1030.84 1031.27 1031.84 1032.11 1032.48 1032.79 1033.12 1033.26 1033.64 1033.79 1034.18 1034.03 1034.17
Thickness
5770 5776 5777 5766 5729 5732 5713 5714 5738 5726 5722 5734 5739 5729 5714 5718 5708 5682 5721 5723 5724 5720 5713 5709 5706 5703 5700 5698 5697 5695 5694 5694 5693 5693 5693 5695 5694 5694 5694 5693 5694 5694 5694 5695 5695 5694 5695 5695 5694
5768 5775 5771 5755 5723 5709 5706 5730 5719 5725 5731 5739 5740 5733 5721 5706 5722 5717 5716 5722 5724 5720 5713 5708 5705 5703 5700 5698 5695 5694 5692 5693 5692 5691 5691 5691 5690 5690 5690 5690 5690 5689 5689 5690 5690 5689 5691 5691 5690
5768 5773 5750 5741 5731 5711 5707 5731 5725 5731 5739 5739 5733 5737 5726 5706 5718 5716 5721 5723 5722 5720 5715 5710 5705 5702 5699 5697 5695 5693 5693 5693 5692 5691 5690 5688 5688 5687 5685 5685 5685 5685 5684 5685 5684 5685 5688 5687 5687
5764 5761 5755 5728 5722 5730 5730 5732 5734 5730 5736 5742 5738 5711 5717 5719 5717 5720 5722 5723 5721 5718 5714 5708 5704 5700 5698 5697 5694 5692 5692 5691 5689 5689 5688 5687 5685 5683 5681 5682 5682 5682 5680 5679 5681 5681 5682 5682 5681
5763 5755 5731 5732 5723 5732 5736 5740 5742 5732 5734 5732 5738 5709 5706 5714 5721 5722 5721 5722 5718 5717 5712 5707 5703 5700 5698 5695 5693 5691 5690 5689 5689 5687 5685 5683 5681 5680 5680 5679 5678 5678 5677 5678 5679 5678 5678 5677 5677
5742 5751 5722 5715 5725 5733 5737 5741 5739 5736 5732 5731 5727 5715 5701 5713 5714 5717 5720 5718 5718 5715 5712 5708 5704 5701 5698 5695 5692 5690 5689 5688 5687 5685 5684 5682 5681 5679 5677 5676 5674 5674 5674 5674 5672 5672 5671 5672 5672
5738 5730 5719 5729 5721 5725 5731 5743 5733 5733 5730 5721 5733 5711 5703 5702 5711 5714 5714 5713 5712 5710 5709 5707 5704 5701 5697 5695 5692 5690 5688 5686 5684 5683 5682 5681 5679 5678 5676 5674 5672 5672 5671 5670 5667 5667 5667 5667 5667
5734 5732 5728 5733 5719 5719 5733 5735 5737 5731 5719 5735 5728 5708 5697 5702 5709 5710 5708 5705 5703 5703 5702 5702 5702 5699 5698 5695 5692 5690 5688 5685 5683 5682 5681 5679 5678 5676 5674 5672 5671 5670 5669 5667 5665 5664 5665 5663 5662
5743 5714 5710 5727 5726 5727 5733 5726 5734 5735 5726 5717 5713 5706 5704 5707 5708 5706 5702 5701 5698 5696 5695 5694 5694 5695 5694 5694 5692 5690 5688 5685 5683 5681 5679 5677 5674 5673 5671 5669 5668 5666 5663 5661 5659 5659 5658 5658 5658
5726 5711 5718 5732 5736 5728 5728 5727 5723 5722 5720 5709 5702 5702 5705 5705 5704 5700 5696 5692 5691 5690 5690 5690 5690 5689 5689 5689 5688 5688 5686 5683 5682 5680 5677 5674 5671 5670 5668 5665 5663 5661 5659 5656 5653 5653 5652 5651 5652
5727 5710 5723 5727 5727 5727 5725 5721 5729 5719 5712 5708 5708 5697 5699 5698 5695 5693 5690 5687 5685 5686 5685 5685 5685 5685 5686 5686 5685 5684 5681 5679 5678 5677 5674 5670 5668 5665 5661 5658 5657 5655 5654 5651 5649 5649 5648 5649 5648
5707 5722 5722 5719 5719 5719 5716 5722 5714 5715 5701 5705 5702 5700 5696 5691 5687 5685 5683 5682 5681 5681 5680 5680 5680 5681 5681 5682 5683 5682 5679 5676 5671 5668 5667 5665 5662 5659 5656 5653 5651 5650 5648 5646 5645 5644 5642 5641 5641
5707 5716 5717 5717 5712 5712 5712 5707 5708 5705 5700 5699 5697 5695 5689 5685 5683 5681 5681 5679 5677 5676 5675 5673 5674 5676 5679 5679 5679 5675 5672 5668 5664 5661 5659 5658 5656 5652 5649 5646 5644 5642 5641 5638 5637 5636 5633 5633 5632
5707 5708 5709 5710 5706 5706 5699 5702 5703 5706 5698 5692 5690 5687 5684 5681 5680 5678 5674 5673 5673 5673 5669 5668 5670 5674 5675 5672 5672 5668 5665 5660 5657 5653 5652 5651 5648 5645 5643 5639 5636 5634 5632 5630 5629 5627 5626 5624 5623
5702 5690 5698 5700 5700 5697 5696 5687 5692 5701 5695 5687 5684 5680 5678 5676 5676 5672 5670 5669 5669 5664 5663 5663 5664 5664 5664 5663 5662 5659 5655 5652 5649 5646 5645 5643 5642 5639 5635 5630 5627 5625 5623 5620 5617 5616 5615 5613 5613
5687 5690 5676 5705 5695 5687 5684 5678 5704 5694 5687 5681 5678 5674 5672 5669 5669 5667 5665 5664 5662 5657 5656 5656 5656 5655 5654 5654 5652 5649 5646 5645 5642 5639 5636 5634 5632 5630 5626 5622 5620 5617 5616 5614 5612 5608 5607 5604 5603
5680 5663 5673 5678 5691 5681 5670 5678 5687 5688 5682 5679 5676 5674 5670 5665 5663 5660 5659 5657 5652 5651 5650 5648 5647 5646 5645 5644 5643 5641 5639 5636 5632 5629 5627 5625 5623 5621 5618 5614 5611 5610 5608 5607 5605 5602 5599 5594 5593
5661 5662 5675 5674 5677 5678 5663 5666 5676 5678 5676 5677 5676 5674 5668 5665 5660 5654 5651 5650 5646 5644 5643 5641 5638 5637 5636 5636 5633 5631 5627 5623 5621 5617 5614 5612 5611 5609 5608 5605 5601 5597 5596 5594 5594 5592 5589 5586 5585
5673 5667 5662 5684 5673 5670 5665 5668 5677 5676 5673 5673 5676 5671 5665 5661 5654 5648 5645 5643 5640 5638 5636 5635 5634 5632 5631 5629 5627 5622 5615 5610 5607 5604 5602 5602 5600 5597 5594 5591 5588 5584 5582 5578 5578 5578 5574 5571 5573
5664 5656 5655 5669 5660 5659 5661 5662 5677 5674 5679 5681 5680 5673 5666 5654 5645 5642 5638 5639 5637 5633 5632 5630 5628 5627 5627 5625 5620 5613 5606 5600 5596 5592 5590 5589 5587 5585 5581 5576 5572 5567 5564 5561 5559 5555 5553 5551 5549
5656 5650 5650 5649 5651 5651 5644 5642 5660 5679 5685 5683 5683 5677 5668 5656 5643 5635 5632 5631 5631 5628 5627 5625 5623 5620 5616 5614 5609 5603 5597 5590 5583 5579 5577 5575 5573 5571 5566 5561 5557 5552 5549 5542 5538 5535 5532 5526 5528
5636 5657 5650 5647 5634 5618 5639 5613 5663 5678 5678 5677 5676 5667 5660 5653 5643 5631 5627 5623 5621 5618 5617 5616 5613 5610 5608 5606 5602 5598 5592 5583 5573 5569 5565 5563 5563 5560 5555 5548 5540 5535 5530 5524 5520 5517 5512 5508 5503
5642 5648 5645 5641 5625 5616 5624 5609 5654 5675 5677 5674 5671 5661 5653 5647 5638 5627 5620 5617 5613 5609 5606 5604 5602 5599 5598 5597 5593 5587 5578 5571 5563 5557 5551 5546 5543 5542 5538 5536 5530 5520 5513 5508 5501 5495 5491 5488 5483
5636 5630 5626 5621 5613 5587 5621 5622 5642 5666 5677 5684 5667 5656 5648 5638 5627 5618 5612 5607 5602 5599 5595 5593 5590 5588 5588 5586 5582 5575 5568 5561 5552 5545 5539 5535 5532 5527 5521 5516 5510 5506 5500 5493 5486 5480 5475 5471 5465
5627 5613 5591 5580 5575 5589 5630 5617 5652 5668 5678 5680 5666 5653 5644 5633 5622 5612 5603 5598 5595 5592 5588 5585 5581 5579 5577 5575 5571 5566 5560 5553 5545 5537 5530 5521 5513 5507 5503 5498 5493 5487 5481 5475 5469 5460 5452 5445 5439
5602 5608 5583 5577 5582 5591 5597 5605 5641 5651 5657 5665 5662 5648 5638 5626 5618 5607 5599 5597 5592 5587 5582 5578 5573 5571 5569 5566 5562 5556 5551 5545 5537 5528 5519 5509 5500 5493 5487 5481 5478 5472 5464 5458 5448 5441 5432 5422 5414
5597 5590 5622 5588 5546 5560 5602 5626 5651 5638 5642 5646 5641 5637 5632 5622 5614 5604 5596 5592 5585 5579 5574 5569 5564 5560 5557 5554 5549 5543 5537 5530 5521 5511 5502 5495 5489 5481 5473 5466 5460 5455 5446 5438 5429 5419 5410 5400 5390
5604 5609 5581 5575 5555 5561 5604 5613 5632 5628 5634 5628 5633 5634 5628 5617 5609 5600 5592 5586 5577 5571 5565 5559 5554 5551 5546 5541 5535 5528 5522 5515 5506 5497 5487 5480 5474 5466 5456 5448 5442 5433 5421 5415 5404 5398 5386 5378 5367
5589 5586 5590 5592 5573 5566 5581 5619 5659 5654 5644 5633 5634 5631 5627 5617 5609 5598 5590 5581 5572 5565 5557 5550 5544 5539 5534 5529 5523 5517 5510 5501 5494 5483 5472 5463 5455 5448 5439 5431 5424 5414 5401 5392 5382 5373 5366 5353 5343
5602 5593 5590 5579 5572 5582 5577 5641 5642 5641 5639 5634 5628 5624 5618 5608 5598 5590 5584 5575 5567 5559 5550 5543 5534 5527 5520 5515 5508 5501 5493 5486 5476 5465 5456 5449 5439 5429 5420 5413 5404 5393 5383 5374 5363 5353 5341 5333 5323